EW3708 Weather Reports


Display with metric or nautical units.
time (UTC)temp
F
wind
direction
speed
MPH
gust
MPH
rain 1hr
in
rain 24hr
in
rain mn
in
humidity
%
barometer
mb
20260508124513 41 209 1.0 3.0 0.00 0.02 0.02 88 1012.3
20260508123013 40 186 1.0 3.0 0.00 0.02 0.02 92 1012.3
20260508121512 40 194 2.0 4.0 0.00 0.02 0.02 93 1012.5
20260508120011 39 203 0.0 2.0 0.00 0.02 0.02 94 1012.3
20260508114510 38 204 0.0 1.0 0.00 0.02 0.02 94 1012.2
20260508113011 37 203 1.0 2.0 0.00 0.02 0.02 94 1012.4
20260508111507 37 203 0.0 1.0 0.00 0.02 0.02 94 1012.2
20260508110006 35 203 0.0 2.0 0.00 0.02 0.02 94 1012.1
20260508104504 34 203 0.0 2.0 0.00 0.02 0.02 92 1012.0
20260508103002 34 286 0.0 0.0 0.00 0.02 0.02 92 1011.8
20260508101559 35 286 0.0 0.0 0.00 0.02 0.02 92 1011.5
20260508100058 35 286 0.0 0.0 0.00 0.02 0.02 92 1011.6
20260508094559 35 286 0.0 0.0 0.00 0.02 0.02 91 1011.4
20260508093055 35 286 0.0 0.0 0.00 0.02 0.02 92 1011.5
20260508091607 35 286 0.0 0.0 0.00 0.02 0.02 91 1011.4
20260508090054 36 286 0.0 0.0 0.00 0.02 0.02 91 1011.3
20260508084559 36 286 0.0 0.0 0.00 0.02 0.02 91 1011.1
20260508083055 37 286 0.0 0.0 0.00 0.02 0.02 91 1011.2
20260508081549 37 286 0.0 0.0 0.00 0.02 0.02 91 1011.3
20260508074544 38 286 0.0 0.0 0.00 0.02 0.02 90 1010.9
20260508073054 38 286 0.0 0.0 0.00 0.02 0.02 89 1010.8
20260508071544 39 286 0.0 0.0 0.00 0.02 0.02 89 1010.8
20260508070039 39 286 0.0 0.0 0.00 0.02 0.02 90 1010.8
20260508064545 40 286 0.0 0.0 0.01 0.03 0.02 89 1010.8
20260508063036 40 286 0.0 0.0 0.01 0.03 0.02 89 1010.7
20260508061536 40 286 0.0 0.0 0.01 0.03 0.02 88 1010.7
20260508060033 41 286 0.0 2.0 0.01 0.03 0.02 87 1011.0
20260508054542 41 286 1.0 4.0 0.00 0.02 0.01 86 1011.3
20260508053028 42 282 2.0 4.0 0.00 0.02 0.01 86 1011.3
20260508051530 42 296 2.0 4.0 0.00 0.02 0.01 86 1011.1
20260508050023 43 309 0.0 1.0 0.01 0.02 0.01 87 1011.0
20260508044521 43 309 0.0 2.0 0.01 0.03 0.01 86 1010.9
20260508043019 43 310 0.0 1.0 0.01 0.03 0.01 84 1010.4
20260508041516 44 310 0.0 3.0 0.01 0.03 0.01 81 1010.2
20260508040032 45 312 2.0 5.0 0.00 0.02 0.00 76 1010.7
20260508034511 45 9 0.0 0.0 0.00 0.02 0.02 79 1009.9
20260508033010 45 12 0.0 0.0 0.00 0.02 0.02 78 1008.8
20260508031514 45 12 0.0 0.0 0.00 0.02 0.02 77 1009.0
20260508030009 46 12 0.0 0.0 0.00 0.02 0.02 74 1008.9
20260508024519 46 12 0.0 0.0 0.00 0.02 0.02 74 1008.8
20260508023010 46 12 0.0 0.0 0.00 0.02 0.02 73 1009.0
20260508021506 47 12 0.0 0.0 0.00 0.02 0.02 71 1009.1
20260508020007 47 12 0.0 0.0 0.00 0.02 0.02 70 1008.9
20260508014506 48 12 0.0 0.0 0.00 0.02 0.02 68 1008.8
20260508013006 48 12 0.0 0.0 0.00 0.02 0.02 67 1008.8
20260508011505 48 12 0.0 0.0 0.00 0.02 0.02 66 1008.8
20260508010004 49 12 0.0 0.0 0.00 0.02 0.02 63 1008.5
20260508004504 49 12 0.0 0.0 0.00 0.02 0.02 62 1008.5
20260508003004 50 12 0.0 0.0 0.00 0.02 0.02 61 1008.4
20260508001505 51 12 0.0 0.0 0.00 0.02 0.02 59 1008.3
20260508000003 52 12 0.0 0.0 0.00 0.02 0.02 57 1008.2
20260507234502 53 12 0.0 0.0 0.00 0.02 0.02 52 1008.2
20260507233002 53 12 0.0 0.0 0.00 0.02 0.02 56 1008.0
20260507231501 54 12 0.0 0.0 0.00 0.02 0.02 48 1007.7
20260507230002 54 12 0.0 2.0 0.00 0.02 0.02 46 1007.9
20260507224601 55 12 0.0 3.0 0.00 0.03 0.02 44 1007.8
20260507223116 55 289 1.0 2.0 0.00 0.03 0.02 44 1007.8
20260507221559 55 296 0.0 3.0 0.00 0.03 0.02 43 1007.7
20260507220059 55 306 1.0 4.0 0.00 0.03 0.02 42 1007.8
20260507214603 55 260 1.0 4.0 0.00 0.03 0.02 43 1007.9
20260507213058 55 289 1.0 3.0 0.00 0.03 0.02 43 1007.9
20260507211603 56 250 0.0 3.0 0.00 0.03 0.02 42 1007.9
20260507210113 56 250 1.0 4.0 0.00 0.03 0.02 41 1007.7
20260507204555 56 265 1.0 3.0 0.00 0.03 0.02 41 1007.7
20260507203055 55 271 1.0 3.0 0.00 0.03 0.02 41 1007.7
20260507201558 55 288 1.0 4.0 0.00 0.03 0.02 42 1007.7
20260507200100 56 38 1.0 7.0 0.00 0.03 0.02 40 1007.8
20260507194559 59 252 2.0 7.0 0.00 0.03 0.02 38 1007.7
20260507193053 59 285 1.0 8.0 0.00 0.03 0.02 37 1008.0
20260507191553 59 236 2.0 8.0 0.00 0.03 0.02 36 1008.1
20260507190057 58 298 3.0 8.0 0.00 0.03 0.02 36 1008.3
20260507184549 58 309 2.0 7.0 0.00 0.04 0.02 38 1008.5
20260507183110 57 263 3.0 6.0 0.00 0.04 0.02 38 1008.7
20260507181551 56 289 1.0 6.0 0.00 0.04 0.02 41 1008.8
20260507180045 57 240 3.0 8.0 0.00 0.04 0.02 40 1008.9
20260507174550 55 310 3.0 5.0 0.00 0.10 0.02 43 1009.1
20260507173048 54 26 2.0 5.0 0.00 0.10 0.02 42 1009.3
20260507171542 56 321 2.0 8.0 0.00 0.10 0.02 44 1009.4
20260507170044 56 301 5.0 9.0 0.00 0.10 0.02 42 1009.5
20260507164555 54 319 3.0 6.0 0.00 0.14 0.02 42 1009.8
20260507163039 54 207 1.0 7.0 0.00 0.14 0.02 43 1009.9
20260507161550 54 18 2.0 9.0 0.00 0.14 0.02 42 1009.8
20260507160036 53 286 3.0 8.0 0.00 0.14 0.02 44 1010.2
20260507154636 53 304 2.0 8.0 0.00 0.26 0.02 45 1010.3
20260507153011 52 314 2.0 7.0 0.00 0.26 0.02 50 1010.6
20260507151508 51 184 3.0 7.0 0.00 0.26 0.02 48 1010.8
20260507150056 50 229 3.0 8.0 0.00 0.26 0.02 50 1010.9
20260507144553 50 284 3.0 7.0 0.00 0.33 0.02 52 1010.9
20260507143151 49 287 1.0 3.0 0.00 0.33 0.02 55 1011.0
20260507141549 48 301 2.0 5.0 0.00 0.33 0.02 55 1011.0
20260507140045 47 155 1.0 4.0 0.00 0.33 0.02 62 1011.1
20260507134542 46 294 2.0 7.0 0.00 0.41 0.02 62 1011.2
20260507133046 46 311 2.0 5.0 0.00 0.41 0.02 65 1011.3
20260507131540 45 335 1.0 3.0 0.00 0.41 0.02 67 1011.1
20260507130041 44 351 1.0 4.0 0.00 0.41 0.02 68 1011.0